TimeMDT,TemperatureF,Dew PointF,Humidity,Sea Level PressureIn,VisibilityMPH,Wind Direction,Wind SpeedMPH,Gust SpeedMPH,PrecipitationIn,Events,Conditions,WindDirDegrees,DateUTC
12:15 AM,41.9,2.8,20,29.90,10.0,WNW,8.1,-,N/A,,Clear,300,2013-03-18 06:15:00
12:35 AM,47.3,2.3,16,29.92,10.0,WNW,10.4,-,N/A,,Clear,300,2013-03-18 06:35:00
12:55 AM,43.0,2.7,19,29.92,10.0,WNW,6.9,-,N/A,,Clear,300,2013-03-18 06:55:00
1:15 AM,40.8,3.2,21,29.93,10.0,NNW,3.5,-,N/A,,Clear,330,2013-03-18 07:15:00
1:35 AM,37.8,3.0,23,29.94,10.0,NNW,3.5,-,N/A,,Clear,340,2013-03-18 07:35:00
1:55 AM,35.6,5.7,29,29.95,10.0,Calm,Calm,-,N/A,,Clear,0,2013-03-18 07:55:00
2:15 AM,33.8,5.0,30,29.96,10.0,Calm,Calm,-,N/A,,Clear,0,2013-03-18 08:15:00
2:35 AM,33.1,5.5,31,29.96,10.0,Calm,Calm,-,N/A,,Clear,0,2013-03-18 08:35:00
2:55 AM,36.0,5.9,29,29.96,10.0,Calm,Calm,-,N/A,,Clear,0,2013-03-18 08:55:00
3:15 AM,35.8,6.1,29,29.96,10.0,West,6.9,-,N/A,,Clear,260,2013-03-18 09:15:00
3:35 AM,39.2,7.7,27,29.96,10.0,West,6.9,-,N/A,,Clear,280,2013-03-18 09:35:00
3:55 AM,40.6,7.3,25,29.96,10.0,WNW,4.6,-,N/A,,Clear,290,2013-03-18 09:55:00
4:15 AM,42.6,7.3,23,29.97,10.0,Calm,Calm,-,N/A,,Clear,0,2013-03-18 10:15:00
4:35 AM,35.8,8.4,32,29.97,10.0,West,5.8,-,N/A,,Clear,280,2013-03-18 10:35:00
4:55 AM,36.7,8.1,31,29.97,10.0,NW,4.6,-,N/A,,Clear,310,2013-03-18 10:55:00
5:15 AM,39.4,8.2,28,29.96,10.0,NW,6.9,-,N/A,,Clear,310,2013-03-18 11:15:00
5:35 AM,37.0,9.3,32,29.96,10.0,WNW,6.9,-,N/A,,Clear,290,2013-03-18 11:35:00
5:55 AM,37.2,9.3,32,29.96,10.0,West,8.1,-,N/A,,Clear,280,2013-03-18 11:55:00
6:15 AM,37.4,9.1,31,29.97,10.0,WNW,9.2,-,N/A,,Clear,290,2013-03-18 12:15:00
6:35 AM,37.2,9.3,32,29.98,10.0,NW,11.5,-,N/A,,Clear,310,2013-03-18 12:35:00
6:55 AM,37.2,9.5,32,29.98,10.0,WNW,10.4,-,N/A,,Clear,290,2013-03-18 12:55:00
7:15 AM,34.0,9.1,36,29.99,10.0,West,9.2,-,N/A,,Clear,260,2013-03-18 13:15:00
7:35 AM,32.7,9.9,39,30.00,10.0,SSW,8.1,-,N/A,,Clear,210,2013-03-18 13:35:00
7:55 AM,31.8,11.8,44,30.02,10.0,SW,9.2,-,N/A,,Clear,220,2013-03-18 13:55:00
8:15 AM,40.3,11.5,31,30.02,10.0,WSW,5.8,-,N/A,,Clear,250,2013-03-18 14:15:00
8:35 AM,45.1,10.8,25,30.04,10.0,West,6.9,-,N/A,,Clear,280,2013-03-18 14:35:00
8:55 AM,46.6,9.3,22,30.02,10.0,NNW,5.8,-,N/A,,Clear,330,2013-03-18 14:55:00
9:15 AM,48.0,7.9,20,30.02,10.0,North,3.5,-,N/A,,Clear,360,2013-03-18 15:15:00
9:35 AM,49.5,8.1,19,30.02,10.0,Calm,Calm,-,N/A,,Clear,0,2013-03-18 15:35:00
9:55 AM,55.2,6.6,14,30.02,10.0,West,12.7,18.4,N/A,,Clear,260,2013-03-18 15:55:00
10:15 AM,56.7,5.7,13,30.03,10.0,West,17.3,25.3,N/A,,Clear,280,2013-03-18 16:15:00
10:35 AM,57.0,5.5,13,30.02,10.0,West,17.3,26.5,N/A,,Clear,270,2013-03-18 16:35:00
10:55 AM,58.5,5.4,12,30.02,10.0,WNW,23.0,28.8,N/A,,Clear,290,2013-03-18 16:55:00
11:15 AM,59.2,4.1,11,30.02,10.0,WNW,23.0,29.9,N/A,,Clear,300,2013-03-18 17:15:00
11:35 AM,59.7,3.7,11,30.02,10.0,West,17.3,29.9,N/A,,Clear,280,2013-03-18 17:35:00
11:55 AM,60.6,3.0,10,30.02,10.0,WNW,23.0,33.4,N/A,,Clear,290,2013-03-18 17:55:00
12:15 PM,60.6,3.9,10,30.02,10.0,WNW,23.0,32.2,N/A,,Clear,300,2013-03-18 18:15:00
12:35 PM,61.7,4.6,10,30.02,10.0,WNW,24.2,27.6,N/A,,Clear,300,2013-03-18 18:35:00
12:55 PM,61.5,5.0,11,30.03,10.0,WNW,20.7,31.1,N/A,,Clear,300,2013-03-18 18:55:00
1:15 PM,61.3,4.6,10,30.02,10.0,West,19.6,32.2,N/A,,Clear,280,2013-03-18 19:15:00
1:35 PM,62.2,5.0,10,30.01,10.0,West,17.3,28.8,N/A,,Clear,280,2013-03-18 19:35:00
1:55 PM,62.4,5.0,10,30.01,10.0,West,21.9,34.5,N/A,,Clear,280,2013-03-18 19:55:00
2:15 PM,63.3,5.5,10,30.00,10.0,West,28.8,35.7,N/A,,Clear,270,2013-03-18 20:15:00
2:35 PM,63.9,5.9,10,29.98,10.0,West,23.0,28.8,N/A,,Clear,280,2013-03-18 20:35:00
2:55 PM,64.2,5.9,10,29.98,10.0,WNW,13.8,27.6,N/A,,Clear,300,2013-03-18 20:55:00
3:15 PM,64.2,6.3,10,29.97,10.0,West,17.3,21.9,N/A,,Clear,280,2013-03-18 21:15:00
3:35 PM,65.7,5.7,9,29.96,10.0,NW,12.7,19.6,N/A,,Clear,310,2013-03-18 21:35:00
3:55 PM,65.8,5.4,9,29.96,10.0,NW,15.0,23.0,N/A,,Clear,310,2013-03-18 21:55:00
4:15 PM,65.3,5.0,9,29.96,10.0,WNW,21.9,34.5,N/A,,Clear,290,2013-03-18 22:15:00
4:35 PM,64.2,5.0,10,29.96,10.0,West,15.0,24.2,N/A,,Clear,280,2013-03-18 22:35:00
4:55 PM,64.4,4.8,9,29.96,10.0,NW,16.1,25.3,N/A,,Clear,320,2013-03-18 22:55:00
5:15 PM,63.7,4.6,10,29.97,10.0,WNW,19.6,26.5,N/A,,Clear,300,2013-03-18 23:15:00
5:35 PM,62.6,4.8,10,29.98,10.0,NW,21.9,25.3,N/A,,Clear,320,2013-03-18 23:35:00
5:55 PM,61.7,5.4,11,29.98,10.0,NW,21.9,25.3,N/A,,Clear,320,2013-03-18 23:55:00
6:15 PM,60.3,5.0,11,29.99,10.0,NW,19.6,23.0,N/A,,Clear,310,2013-03-19 00:15:00
6:35 PM,58.6,5.0,12,29.99,10.0,NW,15.0,20.7,N/A,,Clear,320,2013-03-19 00:35:00
6:55 PM,56.3,4.6,13,30.01,10.0,NNW,11.5,-,N/A,,Clear,330,2013-03-19 00:55:00
7:15 PM,53.8,3.9,13,30.01,10.0,NNW,9.2,-,N/A,,Clear,330,2013-03-19 01:15:00
7:35 PM,50.9,3.2,14,30.01,10.0,North,5.8,-,N/A,,Clear,350,2013-03-19 01:35:00
7:55 PM,49.6,2.8,15,30.02,10.0,Calm,Calm,-,N/A,,Clear,0,2013-03-19 01:55:00
8:15 PM,48.2,2.7,15,30.02,10.0,Calm,Calm,-,N/A,,Clear,0,2013-03-19 02:15:00
8:35 PM,48.0,2.5,15,30.04,10.0,Calm,Calm,-,N/A,,Clear,0,2013-03-19 02:35:00
8:55 PM,46.2,2.3,16,30.04,10.0,Calm,Calm,-,N/A,,Clear,0,2013-03-19 02:55:00
9:15 PM,41.7,2.1,19,30.05,10.0,North,3.5,-,N/A,,Clear,10,2013-03-19 03:15:00
9:55 PM,38.1,4.5,25,30.06,10.0,SW,4.6,-,N/A,,Clear,220,2013-03-19 03:55:00
10:15 PM,43.3,3.7,19,30.06,10.0,SW,3.5,-,N/A,,Clear,230,2013-03-19 04:15:00
10:35 PM,36.9,4.6,26,30.06,10.0,West,5.8,-,N/A,,Clear,260,2013-03-19 04:35:00
10:55 PM,36.1,5.4,28,30.06,10.0,Calm,Calm,-,N/A,,Clear,0,2013-03-19 04:55:00
11:15 PM,34.7,5.5,29,30.07,10.0,Calm,Calm,-,N/A,,Clear,0,2013-03-19 05:15:00
11:35 PM,34.2,6.1,31,30.06,10.0,SSW,4.6,-,N/A,,Clear,200,2013-03-19 05:35:00
11:55 PM,34.2,6.4,31,30.05,10.0,Calm,Calm,-,N/A,,Clear,0,2013-03-19 05:55:00